Météo Nord-Pas-de-Calais   La météo au plus près de chez vous

Station météorologique

Observations météo à Belin Beliet (33042)

33042005 45 m Dernier relevé à 04:30
13.3°C
Humidité 95 % Vent 4.7 km/h

Journée consultée

Mercredi 2 Septembre 2026

Synthèse de la journée

Périodes de référence en UTC

Température maximale

26.7°C

à 18:00

06h 06h

Température minimale

13.3°C

à 04:30

18h 18h

Rafale maximale

9 km/h

à 02:06

00h 00h

Précipitations

0 mm

Cumul quotidien

06h 06h

Ensoleillement

0h 0 mins

Durée quotidienne

00h 00h

Graphiques de la journée

Heure locale Réduire

Données détaillées

Relevés météo

Pas de 6 minutes Afficher les relevés infra-horaires
Relevés météo détaillés à Belin Beliet pour le Mercredi 2 Septembre 2026
Heure Température °C Point de rosée °C Humidité % Vent moyen (raf.), km/h Précipitations mm Ensoleillement min Rayonnement global W/m²
04:30 13.3 °C 12.8 °C 97 % 3 km/h (5 km/h) 0 mm0 mm 0 min 0 W/m²
04:24 13.4 °C 12.9 °C 97 % 3 km/h (5 km/h) 0 mm0 mm 0 min 0 W/m²
04:18 13.5 °C 13 °C 97 % 3 km/h (5 km/h) 0 mm0 mm 0 min 0 W/m²
04:12 13.6 °C 13.3 °C 98 % 2 km/h (4 km/h) 0 mm0 mm 0 min 0 W/m²
04:06 13.6 °C 13.1 °C 97 % 2 km/h (5 km/h) 0 mm0 mm 0 min 0 W/m²
04:00 13.6 °C 13.1 °C 97 % 3 km/h (5 km/h) 0 mm0 mm 0 min 0 W/m²
03:54 13.7 °C 13.1 °C 96 % 4 km/h (6 km/h) 0 mm0 mm 0 min 0 W/m²
03:48 13.9 °C 13.1 °C 95 % 5 km/h (6 km/h) 0 mm0 mm 0 min 0 W/m²
03:42 14 °C 13.2 °C 95 % 5 km/h (6 km/h) 0 mm0 mm 0 min 0 W/m²
03:36 14.2 °C 13.4 °C 95 % 4 km/h (6 km/h) 0 mm0 mm 0 min 0 W/m²
03:30 14.4 °C 13.6 °C 95 % 5 km/h (7 km/h) 0 mm0 mm 0 min 0 W/m²
03:24 14.5 °C 13.9 °C 96 % 4 km/h (7 km/h) 0 mm0 mm 0 min 0 W/m²
03:18 14.6 °C 13.6 °C 94 % 3 km/h (5 km/h) 0 mm0 mm 0 min 0 W/m²
03:12 14.7 °C 13.7 °C 94 % 2 km/h (4 km/h) 0 mm0 mm 0 min 0 W/m²
03:06 14.9 °C 13.9 °C 94 % 2 km/h (3 km/h) 0 mm0 mm 0 min 0 W/m²
03:00 15 °C 13.9 °C 93 % 2 km/h (3 km/h) 0 mm0 mm 0 min 0 W/m²
02:54 15.2 °C 14.1 °C 93 % 2 km/h (3 km/h) 0 mm0 mm 0 min 0 W/m²
02:48 15.3 °C 14.2 °C 93 % 3 km/h (5 km/h) 0 mm0 mm 0 min 0 W/m²
02:42 15.5 °C 14.2 °C 92 % 3 km/h (5 km/h) 0 mm0 mm 0 min 0 W/m²
02:36 15.8 °C 14.2 °C 90 % 3 km/h (5 km/h) 0 mm0 mm 0 min 0 W/m²
02:30 16.2 °C 14.6 °C 90 % 4 km/h (6 km/h) 0 mm0 mm 0 min 0 W/m²
02:24 16.4 °C 14.9 °C 91 % 5 km/h (8 km/h) 0 mm0 mm 0 min 0 W/m²
02:18 16.5 °C 14.9 °C 90 % 5 km/h (8 km/h) 0 mm0 mm 0 min 0 W/m²
02:12 16.6 °C 14.8 °C 89 % 5 km/h (9 km/h) 0 mm0 mm 0 min 0 W/m²
02:06 16.7 °C 14.9 °C 89 % 5 km/h (9 km/h) 0 mm0 mm 0 min 0 W/m²
02:00 16.8 °C 14.8 °C 88 % 6 km/h (9 km/h) 0 mm0 mm 0 min 0 W/m²
01:54 16.9 °C 14.9 °C 88 % 6 km/h (9 km/h) 0 mm0 mm 0 min 0 W/m²
01:48 16.9 °C 14.7 °C 87 % 7 km/h (10 km/h) 0 mm0 mm 0 min 0 W/m²
01:42 17.1 °C 14.7 °C 86 % 7 km/h (10 km/h) 0 mm0 mm 0 min 0 W/m²
01:36 17.2 °C 14.7 °C 85 % 6 km/h (9 km/h) 0 mm0 mm 0 min 0 W/m²
01:30 17.4 °C 14.9 °C 85 % 6 km/h (9 km/h) 0 mm0 mm 0 min 0 W/m²
01:24 17.7 °C 14.8 °C 83 % 7 km/h (10 km/h) 0 mm0 mm 0 min 0 W/m²
01:18 17.9 °C 14.8 °C 82 % 7 km/h (11 km/h) 0 mm0 mm 0 min 0 W/m²
01:12 18 °C 14.9 °C 82 % 7 km/h (10 km/h) 0 mm0 mm 0 min 0 W/m²
01:06 18.3 °C 14.8 °C 80 % 7 km/h (9 km/h) 0 mm0 mm 0 min 0 W/m²
01:00 18.6 °C 14.9 °C 79 % 6 km/h (10 km/h) 0 mm0 mm 0 min 0 W/m²
00:54 18.8 °C 14.9 °C 78 % 7 km/h (11 km/h) 0 mm0 mm 0 min 0 W/m²
00:48 19.1 °C 15 °C 77 % 8 km/h (13 km/h) 0 mm0 mm 0 min 0 W/m²
00:42 19.2 °C 14.9 °C 76 % 8 km/h (13 km/h) 0 mm0 mm 0 min 0 W/m²
00:36 19.4 °C 15.1 °C 76 % 8 km/h (12 km/h) 0 mm0 mm 0 min 0 W/m²
00:30 19.5 °C 15.2 °C 76 % 8 km/h (12 km/h) 0 mm0 mm 0 min 0 W/m²
00:24 19.7 °C 15.3 °C 76 % 8 km/h (12 km/h) 0 mm0 mm 0 min 0 W/m²
00:18 19.8 °C 15.4 °C 76 % 7 km/h (12 km/h) 0 mm0 mm 0 min 0 W/m²
00:12 19.8 °C 15.4 °C 76 % 7 km/h (12 km/h) 0 mm0 mm 0 min 0 W/m²
00:06 19.8 °C 15.4 °C 76 % 8 km/h (11 km/h) 0 mm0 mm 0 min 0 W/m²
00:00 19.8 °C 15.6 °C 77 % 8 km/h (11 km/h) 0 mm0 mm 0 min 0 W/m²

Données via Météo-France

Relevés météo à Belin Beliet

Cette page rassemble les observations de la station de Belin Beliet : température, humidité, vent, précipitations et pression atmosphérique. Les graphiques facilitent le suivi de la journée, tandis que le tableau donne accès aux mesures horaires et infra-horaires disponibles.

Pour replacer ces mesures dans leur contexte, consultez la climatologie de Belin Beliet ainsi que ses normales et records. Retrouvez aussi la carte des observations météo en temps réel.